• In Belarus
  • List of Countries
  • For 7 days
  • Water Temperature
  • Satellite Maps
  • Weather Map
  • Weather Widgets
  • user-avatar
    Login

    Hourly Weather Kolomyja

    Today, 21 September, Friday

    Time Temperature Precipitation Wind Pressure Humidity
    00:00 +20°C° 0 mm 1 mps 739 mmHg 86%
    01:00 +20°C° 0 mm 1 mps 739 mmHg 86%
    02:00 +14°C° 0 mm 0 mps 739 mmHg 88%
    03:00 +18°C° 0 mm 1 mps 739 mmHg 84%
    04:00 +16°C° 0 mm 1 mps 739 mmHg 85%
    05:00 +15°C° 0 mm 0 mps 739 mmHg 85%
    06:00 +15°C° 0 mm 0 mps 739 mmHg 86%
    07:00 +15°C° 0 mm 1 mps 739 mmHg 89%
    08:00 +16°C° 0 mm 1 mps 739 mmHg 91%
    09:00 +18°C° 0 mm 1 mps 739 mmHg 87%
    10:00 +20°C° 0 mm 1 mps 739 mmHg 86%
    11:00 +22°C° 0 mm 1 mps 739 mmHg 78%
    12:00 +23°C° 0 mm 2 mps 739 mmHg 75%
    13:00 +24°C° 0 mm 2 mps 739 mmHg 72%
    14:00 +25°C° 0 mm 2 mps 738 mmHg 67%
    15:00 +25°C° 0 mm 2 mps 738 mmHg 69%
    16:00 +25°C° 0 mm 2 mps 738 mmHg 67%
    17:00 +25°C° 0 mm 1 mps 738 mmHg 74%
    18:00 +24°C° 0 mm 1 mps 737 mmHg 80%
    19:00 +21°C° 0 mm 0 mps 737 mmHg 75%
    20:00 +22°C° 0 mm 1 mps 737 mmHg 80%
    21:00 +22°C° 0 mm 1 mps 737 mmHg 80%
    22:00 +21°C° 0 mm 1 mps 737 mmHg 81%
    23:00 +18°C° 0 mm 0 mps 737 mmHg 80%

    Tomorrow, 22 September, Saturday

    Time Temperature Precipitation Wind Pressure Humidity
    00:00 +20°C° 0 mm 1 mps 737 mmHg 78%
    01:00 +19°C° 0 mm 1 mps 736 mmHg 76%
    02:00 +18°C° 0 mm 1 mps 736 mmHg 80%
    03:00 +16°C° 0 mm 1 mps 736 mmHg 83%
    04:00 +16°C° 0 mm 1 mps 736 mmHg 86%
    05:00 +15°C° 0 mm 1 mps 736 mmHg 88%
    06:00 +14°C° 0 mm 0 mps 736 mmHg 88%
    07:00 +14°C° 0 mm 0 mps 736 mmHg 86%
    08:00 +15°C° 0 mm 0 mps 736 mmHg 85%
    09:00 +17°C° 0 mm 0 mps 736 mmHg 85%
    10:00 +21°C° 0 mm 1 mps 737 mmHg 76%
    11:00 +18°C° 0 mm 7 mps 738 mmHg 83%
    12:00 +19°C° 0 mm 6 mps 738 mmHg 80%
    13:00 +19°C° 0 mm 5 mps 738 mmHg 79%
    14:00 +19°C° 0 mm 5 mps 738 mmHg 79%
    15:00 +19°C° 0 mm 5 mps 738 mmHg 78%
    16:00 +16°C° 0 mm 7 mps 738 mmHg 84%
    17:00 +13°C° 0.5 mm 6 mps 738 mmHg 98%
    18:00 +12°C° 1.2 mm 5 mps 738 mmHg 98%
    19:00 +13°C° 1.2 mm 1 mps 738 mmHg 99%
    20:00 +12°C° 0.2 mm 0 mps 738 mmHg 100%
    21:00 +13°C° 0.2 mm 2 mps 738 mmHg 99%
    22:00 +13°C° 0.1 mm 2 mps 739 mmHg 93%
    23:00 +13°C° 0 mm 2 mps 739 mmHg 91%

    Day after tomorrow, 23 September, Sunday

    Time Temperature Precipitation Wind Pressure Humidity
    00:00 +13°C° 0 mm 2 mps 739 mmHg 92%
    01:00 +13°C° 0 mm 2 mps 739 mmHg 89%
    02:00 +12°C° 0 mm 2 mps 739 mmHg 87%
    03:00 +12°C° 0 mm 2 mps 738 mmHg 87%
    04:00 +10°C° 0 mm 2 mps 739 mmHg 88%
    05:00 +10°C° 0 mm 3 mps 739 mmHg 88%
    06:00 +9°C° 0 mm 2 mps 739 mmHg 88%
    07:00 +9°C° 0 mm 2 mps 739 mmHg 89%
    08:00 +12°C° 0 mm 1 mps 739 mmHg 88%
    09:00 +14°C° 0 mm 2 mps 740 mmHg 82%
    10:00 +14°C° 0 mm 4 mps 740 mmHg 76%
    11:00 +15°C° 0 mm 4 mps 740 mmHg 72%
    12:00 +17°C° 0 mm 4 mps 741 mmHg 68%
    13:00 +17°C° 0 mm 4 mps 740 mmHg 64%
    14:00 +17°C° 0 mm 4 mps 740 mmHg 62%
    15:00 +18°C° 0 mm 4 mps 740 mmHg 63%
    16:00 +17°C° 0 mm 2 mps 740 mmHg 65%
    17:00 +17°C° 0 mm 2 mps 740 mmHg 70%
    18:00 +15°C° 0 mm 0 mps 740 mmHg 76%
    19:00 +15°C° 0 mm 1 mps 740 mmHg 79%
    20:00 +14°C° 0 mm 2 mps 740 mmHg 81%
    21:00 +14°C° 0 mm 2 mps 739 mmHg 78%
    22:00 +13°C° 0 mm 1 mps 739 mmHg 74%
    23:00 +12°C° 0 mm 2 mps 738 mmHg 84%

    24 September, Monday

    Time Temperature Precipitation Wind Pressure Humidity
    00:00 +10°C° 0 mm 2 mps 737 mmHg 93%
    01:00 +10°C° 0 mm 2 mps 735 mmHg 96%
    02:00 +9°C° 0 mm 2 mps 734 mmHg 98%
    03:00 +9°C° 0 mm 2 mps 733 mmHg 100%
    04:00 +10°C° 0 mm 1 mps 732 mmHg 100%
    05:00 +10°C° 0 mm 1 mps 731 mmHg 99%
    06:00 +10°C° 0 mm 2 mps 729 mmHg 96%
    07:00 +13°C° 0 mm 3 mps 728 mmHg 84%
    08:00 +15°C° 0 mm 2 mps 727 mmHg 80%
    09:00 +17°C° 0 mm 2 mps 727 mmHg 79%
    10:00 +19°C° 0 mm 4 mps 728 mmHg 80%
    11:00 +20°C° 0 mm 4 mps 727 mmHg 78%
    12:00 +22°C° 0 mm 6 mps 726 mmHg 77%
    13:00 +22°C° 0 mm 8 mps 725 mmHg 76%
    14:00 +22°C° 0 mm 11 mps 726 mmHg 72%
    15:00 +15°C° 0.3 mm 12 mps 728 mmHg 70%
    16:00 +13°C° 0 mm 11 mps 729 mmHg 71%
    17:00 +12°C° 0 mm 9 mps 730 mmHg 73%
    18:00 +11°C° 0 mm 7 mps 731 mmHg 75%
    19:00 +11°C° 0 mm 6 mps 732 mmHg 75%
    20:00 +10°C° 0 mm 6 mps 733 mmHg 76%
    21:00 +10°C° 0 mm 5 mps 734 mmHg 76%
    22:00 +9°C° 0 mm 6 mps 734 mmHg 77%
    23:00 +8°C° 0 mm 6 mps 735 mmHg 80%

    25 September, Tuesday

    Time Temperature Precipitation Wind Pressure Humidity
    00:00 +8°C° 0 mm 7 mps 735 mmHg 83%
    01:00 +7°C° 0 mm 8 mps 735 mmHg 83%
    02:00 +8°C° 0 mm 7 mps 736 mmHg 85%

    26 September, Wednesday

    Time Temperature Precipitation Wind Pressure Humidity
    Show more